Year,Month,Day,Hour,Minute,Value (Times are PST for temperature in C)
2017,06,24,00,00,19.70
2017,06,24,00,01,19.70
2017,06,24,00,02,19.60
2017,06,24,00,03,19.60
2017,06,24,00,04,19.60
2017,06,24,00,05,19.60
2017,06,24,00,06,19.60
2017,06,24,00,07,19.60
2017,06,24,00,08,19.50
2017,06,24,00,09,19.50
2017,06,24,00,10,19.50
2017,06,24,00,11,19.40
2017,06,24,00,12,19.40
2017,06,24,00,13,19.40
2017,06,24,00,14,19.40
2017,06,24,00,15,19.40
2017,06,24,00,16,19.40
2017,06,24,00,17,19.40
2017,06,24,00,18,19.40
2017,06,24,00,19,19.40
2017,06,24,00,20,19.30
2017,06,24,00,21,19.30
2017,06,24,00,22,19.30
2017,06,24,00,23,19.30
2017,06,24,00,24,19.30
2017,06,24,00,25,19.20
2017,06,24,00,26,19.20
2017,06,24,00,27,19.20
2017,06,24,00,28,19.20
2017,06,24,00,29,19.10
2017,06,24,00,30,19.10
2017,06,24,00,31,19.10
2017,06,24,00,32,19.10
2017,06,24,00,33,19.10
2017,06,24,00,34,19.10
2017,06,24,00,35,19.00
2017,06,24,00,36,19.00
2017,06,24,00,37,19.00
2017,06,24,00,38,19.00
2017,06,24,00,39,18.90
2017,06,24,00,40,18.90
2017,06,24,00,41,18.90
2017,06,24,00,42,18.90
2017,06,24,00,43,18.90
2017,06,24,00,44,18.90
2017,06,24,00,45,18.90
2017,06,24,00,46,18.80
2017,06,24,00,47,18.80
2017,06,24,00,48,18.80
2017,06,24,00,49,18.80
2017,06,24,00,50,18.80
2017,06,24,00,51,18.80
2017,06,24,00,52,18.80
2017,06,24,00,53,18.80
2017,06,24,00,54,18.80
2017,06,24,00,55,18.80
2017,06,24,00,56,18.80
2017,06,24,00,57,18.80
2017,06,24,00,58,18.70
2017,06,24,00,59,18.70
2017,06,24,01,00,18.70
2017,06,24,01,01,18.70
2017,06,24,01,02,18.60
2017,06,24,01,03,18.60
2017,06,24,01,04,18.60
2017,06,24,01,05,18.50
2017,06,24,01,06,18.50
2017,06,24,01,07,18.50
2017,06,24,01,08,18.40
2017,06,24,01,09,18.40
2017,06,24,01,10,18.40
2017,06,24,01,11,18.30
2017,06,24,01,12,18.30
2017,06,24,01,13,18.20
2017,06,24,01,14,18.20
2017,06,24,01,15,18.20
2017,06,24,01,16,18.10
2017,06,24,01,17,18.10
2017,06,24,01,18,18.10
2017,06,24,01,19,18.00
2017,06,24,01,20,18.00
2017,06,24,01,21,17.90
2017,06,24,01,22,17.90
2017,06,24,01,23,17.80
2017,06,24,01,24,17.80
2017,06,24,01,25,17.70
2017,06,24,01,26,17.70
2017,06,24,01,27,17.70
2017,06,24,01,28,17.60
2017,06,24,01,29,17.60
2017,06,24,01,30,17.60
2017,06,24,01,31,17.60
2017,06,24,01,32,17.60
2017,06,24,01,33,17.60
2017,06,24,01,34,17.60
2017,06,24,01,35,17.60
2017,06,24,01,36,17.60
2017,06,24,01,37,17.60
2017,06,24,01,38,17.60
2017,06,24,01,39,17.60
2017,06,24,01,40,17.70
2017,06,24,01,41,17.70
2017,06,24,01,42,17.70
2017,06,24,01,43,17.70
2017,06,24,01,44,17.70
2017,06,24,01,45,17.80
2017,06,24,01,46,17.80
2017,06,24,01,47,17.90
2017,06,24,01,48,17.90
2017,06,24,01,49,17.90
2017,06,24,01,50,17.90
2017,06,24,01,51,17.90
2017,06,24,01,52,17.90
2017,06,24,01,53,17.90
2017,06,24,01,54,17.90
2017,06,24,01,55,17.90
2017,06,24,01,56,17.90
2017,06,24,01,57,17.90
2017,06,24,01,58,17.90
2017,06,24,01,59,17.90
2017,06,24,02,00,17.80
2017,06,24,02,01,17.80
2017,06,24,02,02,17.80
2017,06,24,02,03,17.70
2017,06,24,02,04,17.70
2017,06,24,02,05,17.70
2017,06,24,02,06,17.60
2017,06,24,02,07,17.60
2017,06,24,02,08,17.60
2017,06,24,02,09,17.60
2017,06,24,02,10,17.60
2017,06,24,02,11,17.60
2017,06,24,02,12,17.50
2017,06,24,02,13,17.50
2017,06,24,02,14,17.50
2017,06,24,02,15,17.60
2017,06,24,02,16,17.60
2017,06,24,02,17,17.60
2017,06,24,02,18,17.60
2017,06,24,02,19,17.60
2017,06,24,02,20,17.60
2017,06,24,02,21,17.60
2017,06,24,02,22,17.60
2017,06,24,02,23,17.60
2017,06,24,02,24,17.60
2017,06,24,02,25,17.50
2017,06,24,02,26,17.50
2017,06,24,02,27,17.50
2017,06,24,02,28,17.50
2017,06,24,02,29,17.40
2017,06,24,02,30,17.40
2017,06,24,02,31,17.40
2017,06,24,02,32,17.40
2017,06,24,02,33,17.40
2017,06,24,02,34,17.40
2017,06,24,02,35,17.30
2017,06,24,02,36,17.30
2017,06,24,02,37,17.30
2017,06,24,02,38,17.30
2017,06,24,02,39,17.30
2017,06,24,02,40,17.30
2017,06,24,02,41,17.30
2017,06,24,02,42,17.30
2017,06,24,02,43,17.30
2017,06,24,02,44,17.30
2017,06,24,02,45,17.30
2017,06,24,02,46,17.30
2017,06,24,02,47,17.20
2017,06,24,02,48,17.20
2017,06,24,02,49,17.20
2017,06,24,02,50,17.20
2017,06,24,02,51,17.10
2017,06,24,02,52,17.10
2017,06,24,02,53,17.10
2017,06,24,02,54,17.00
2017,06,24,02,55,17.00
2017,06,24,02,56,17.00
2017,06,24,02,57,16.90
2017,06,24,02,58,16.90
2017,06,24,02,59,16.90
2017,06,24,03,00,16.90
2017,06,24,03,01,16.90
2017,06,24,03,02,16.90
2017,06,24,03,03,16.90
2017,06,24,03,04,16.90
2017,06,24,03,05,16.80
2017,06,24,03,06,16.80
2017,06,24,03,07,16.80
2017,06,24,03,08,16.80
2017,06,24,03,09,16.80
2017,06,24,03,10,16.80
2017,06,24,03,11,16.70
2017,06,24,03,12,16.70
2017,06,24,03,13,16.70
2017,06,24,03,14,16.70
2017,06,24,03,15,16.70
2017,06,24,03,16,16.70
2017,06,24,03,17,16.60
2017,06,24,03,18,16.60
2017,06,24,03,19,16.60
2017,06,24,03,20,16.60
2017,06,24,03,21,16.60
2017,06,24,03,22,16.50
2017,06,24,03,23,16.50
2017,06,24,03,24,16.50
2017,06,24,03,25,16.50
2017,06,24,03,26,16.50
2017,06,24,03,27,16.40
2017,06,24,03,28,16.40
2017,06,24,03,29,16.40
2017,06,24,03,30,16.40
2017,06,24,03,31,16.40
2017,06,24,03,32,16.40
2017,06,24,03,33,16.40
2017,06,24,03,34,16.40
2017,06,24,03,35,16.40
2017,06,24,03,36,16.40
2017,06,24,03,37,16.40
2017,06,24,03,38,16.40
2017,06,24,03,39,16.40
2017,06,24,03,40,16.40
2017,06,24,03,41,16.40
2017,06,24,03,42,16.40
2017,06,24,03,43,16.40
2017,06,24,03,44,16.40
2017,06,24,03,45,16.40
2017,06,24,03,46,16.40
2017,06,24,03,47,16.40
2017,06,24,03,48,16.40
2017,06,24,03,49,16.40
2017,06,24,03,50,16.40
2017,06,24,03,51,16.40
2017,06,24,03,52,16.40
2017,06,24,03,53,16.40
2017,06,24,03,54,16.40
2017,06,24,03,55,16.40
2017,06,24,03,56,16.40
2017,06,24,03,57,16.40
2017,06,24,03,58,16.40
2017,06,24,03,59,16.40
2017,06,24,04,00,16.40
2017,06,24,04,01,16.40
2017,06,24,04,02,16.40
2017,06,24,04,03,16.40
2017,06,24,04,04,16.40
2017,06,24,04,05,16.30
2017,06,24,04,06,16.30
2017,06,24,04,07,16.30
2017,06,24,04,08,16.30
2017,06,24,04,09,16.20
2017,06,24,04,10,16.20
2017,06,24,04,11,16.20
2017,06,24,04,12,16.20
2017,06,24,04,13,16.20
2017,06,24,04,14,16.20
2017,06,24,04,15,16.10
2017,06,24,04,16,16.10
2017,06,24,04,17,16.10
2017,06,24,04,18,16.10
2017,06,24,04,19,16.10
2017,06,24,04,20,16.10
2017,06,24,04,21,16.10
2017,06,24,04,22,16.10
2017,06,24,04,23,16.10
2017,06,24,04,24,16.10
2017,06,24,04,25,16.10
2017,06,24,04,26,16.00
2017,06,24,04,27,16.00
2017,06,24,04,28,16.00
2017,06,24,04,29,15.90
2017,06,24,04,30,15.90
2017,06,24,04,31,15.90
2017,06,24,04,32,15.80
2017,06,24,04,33,15.80
2017,06,24,04,34,15.80
2017,06,24,04,35,15.80
2017,06,24,04,36,15.80
2017,06,24,04,37,15.80
2017,06,24,04,38,15.70
2017,06,24,04,39,15.70
2017,06,24,04,40,15.70
2017,06,24,04,41,15.70
2017,06,24,04,42,15.70
2017,06,24,04,43,15.60
2017,06,24,04,44,15.60
2017,06,24,04,45,15.60
2017,06,24,04,46,15.60
2017,06,24,04,47,15.50
2017,06,24,04,48,15.50
2017,06,24,04,49,15.50
2017,06,24,04,50,15.50
2017,06,24,04,51,15.50
2017,06,24,04,52,15.40
2017,06,24,04,53,15.40
2017,06,24,04,54,15.40
2017,06,24,04,55,15.40
2017,06,24,04,56,15.40
2017,06,24,04,57,15.40
2017,06,24,04,58,15.40
2017,06,24,04,59,15.40
2017,06,24,05,00,15.40
2017,06,24,05,01,15.40
2017,06,24,05,02,15.40
2017,06,24,05,03,15.40
2017,06,24,05,04,15.40
2017,06,24,05,05,15.50
2017,06,24,05,06,15.50
2017,06,24,05,07,15.50
2017,06,24,05,08,15.50
2017,06,24,05,09,15.40
2017,06,24,05,10,15.40
2017,06,24,05,11,15.40
2017,06,24,05,12,15.40
2017,06,24,05,13,15.40
2017,06,24,05,14,15.40
2017,06,24,05,15,15.40
2017,06,24,05,16,15.40
2017,06,24,05,17,15.30
2017,06,24,05,18,15.30
2017,06,24,05,19,15.30
2017,06,24,05,20,15.30
2017,06,24,05,21,15.30
2017,06,24,05,22,15.30
2017,06,24,05,23,15.20
2017,06,24,05,24,15.20
2017,06,24,05,25,15.20
2017,06,24,05,26,15.10
2017,06,24,05,27,15.10
2017,06,24,05,28,15.10
2017,06,24,05,29,15.10
2017,06,24,05,30,15.10
2017,06,24,05,31,15.10
2017,06,24,05,32,15.10
2017,06,24,05,33,15.20
2017,06,24,05,34,15.30
2017,06,24,05,35,15.30
2017,06,24,05,36,15.40
2017,06,24,05,37,15.50
2017,06,24,05,38,15.60
2017,06,24,05,39,15.60
2017,06,24,05,40,15.70
2017,06,24,05,41,15.70
2017,06,24,05,42,15.70
2017,06,24,05,43,15.70
2017,06,24,05,44,15.70
2017,06,24,05,45,15.70
2017,06,24,05,46,15.70
2017,06,24,05,47,15.70
2017,06,24,05,48,15.70
2017,06,24,05,49,15.60
2017,06,24,05,50,15.60
2017,06,24,05,51,15.60
2017,06,24,05,52,15.60
2017,06,24,05,53,15.60
2017,06,24,05,54,15.70
2017,06,24,05,55,15.80
2017,06,24,05,56,15.80
2017,06,24,05,57,15.80
2017,06,24,05,58,15.90
2017,06,24,05,59,15.90
2017,06,24,06,00,16.00
2017,06,24,06,01,16.00
2017,06,24,06,02,16.10
2017,06,24,06,03,16.10
2017,06,24,06,04,16.10
2017,06,24,06,05,16.10
2017,06,24,06,06,16.20
2017,06,24,06,07,16.20
2017,06,24,06,08,16.20
2017,06,24,06,09,16.20
2017,06,24,06,10,16.20
2017,06,24,06,11,16.20
2017,06,24,06,12,16.20
2017,06,24,06,13,16.20
2017,06,24,06,14,16.20
2017,06,24,06,15,16.20
2017,06,24,06,16,16.20
2017,06,24,06,17,16.20
2017,06,24,06,18,16.20
2017,06,24,06,19,16.20
2017,06,24,06,20,16.20
2017,06,24,06,21,16.20
2017,06,24,06,22,16.30
2017,06,24,06,23,16.30
2017,06,24,06,24,16.30
2017,06,24,06,25,16.30
2017,06,24,06,26,16.30
2017,06,24,06,27,16.30
2017,06,24,06,28,16.30
2017,06,24,06,29,16.30
2017,06,24,06,30,16.30
2017,06,24,06,31,16.30
2017,06,24,06,32,16.40
2017,06,24,06,33,16.40
2017,06,24,06,34,16.40
2017,06,24,06,35,16.50
2017,06,24,06,36,16.50
2017,06,24,06,37,16.60
2017,06,24,06,38,16.60
2017,06,24,06,39,16.70
2017,06,24,06,40,16.70
2017,06,24,06,41,16.70
2017,06,24,06,42,16.70
2017,06,24,06,43,16.70
2017,06,24,06,44,16.70
2017,06,24,06,45,16.70
2017,06,24,06,46,16.80
2017,06,24,06,47,16.80
2017,06,24,06,48,16.80
2017,06,24,06,49,16.80
2017,06,24,06,50,16.80
2017,06,24,06,51,16.80
2017,06,24,06,52,16.90
2017,06,24,06,53,16.90
2017,06,24,06,54,16.90
2017,06,24,06,55,16.90
2017,06,24,06,56,17.00
2017,06,24,06,57,17.00
2017,06,24,06,58,17.10
2017,06,24,06,59,17.10
2017,06,24,07,00,17.10
2017,06,24,07,01,17.20
2017,06,24,07,02,17.20
2017,06,24,07,03,17.20
2017,06,24,07,04,17.30
2017,06,24,07,05,17.30
2017,06,24,07,06,17.30
2017,06,24,07,07,17.30
2017,06,24,07,08,17.30
2017,06,24,07,09,17.40
2017,06,24,07,10,17.40
2017,06,24,07,11,17.50
2017,06,24,07,12,17.50
2017,06,24,07,13,17.60
2017,06,24,07,14,17.60
2017,06,24,07,15,17.70
2017,06,24,07,16,17.70
2017,06,24,07,17,17.80
2017,06,24,07,18,17.80
2017,06,24,07,19,17.90
2017,06,24,07,20,18.00
2017,06,24,07,21,18.00
2017,06,24,07,22,18.10
2017,06,24,07,23,18.10
2017,06,24,07,24,18.10
2017,06,24,07,25,18.10
2017,06,24,07,26,18.10
2017,06,24,07,27,18.10
2017,06,24,07,28,18.10
2017,06,24,07,29,18.10
2017,06,24,07,30,18.10
2017,06,24,07,31,18.10
2017,06,24,07,32,18.00
2017,06,24,07,33,18.00
2017,06,24,07,34,18.10
2017,06,24,07,35,18.10
2017,06,24,07,36,18.10
2017,06,24,07,37,18.10
2017,06,24,07,38,18.20
2017,06,24,07,39,18.20
2017,06,24,07,40,18.20
2017,06,24,07,41,18.20
2017,06,24,07,42,18.30
2017,06,24,07,43,18.30
2017,06,24,07,44,18.40
2017,06,24,07,45,18.40
2017,06,24,07,46,18.50
2017,06,24,07,47,18.50
2017,06,24,07,48,18.60
2017,06,24,07,49,18.60
2017,06,24,07,50,18.60
2017,06,24,07,51,18.60
2017,06,24,07,52,18.70
2017,06,24,07,53,18.70
2017,06,24,07,54,18.70
2017,06,24,07,55,18.80
2017,06,24,07,56,18.80
2017,06,24,07,57,18.80
2017,06,24,07,58,18.80
2017,06,24,07,59,18.80
2017,06,24,08,00,18.80
2017,06,24,08,01,18.80
2017,06,24,08,02,18.90
2017,06,24,08,03,19.00
2017,06,24,08,04,19.00
2017,06,24,08,05,19.10
2017,06,24,08,06,19.10
2017,06,24,08,07,19.20
2017,06,24,08,08,19.30
2017,06,24,08,09,19.40
2017,06,24,08,10,19.50
2017,06,24,08,11,19.60
2017,06,24,08,12,19.60
2017,06,24,08,13,19.70
2017,06,24,08,14,19.70
2017,06,24,08,15,19.70
2017,06,24,08,16,19.80
2017,06,24,08,17,19.80
2017,06,24,08,18,19.80
2017,06,24,08,19,19.90
2017,06,24,08,20,19.90
2017,06,24,08,21,19.90
2017,06,24,08,22,19.90
2017,06,24,08,23,19.90
2017,06,24,08,24,19.80
2017,06,24,08,25,19.70
2017,06,24,08,26,19.60
2017,06,24,08,27,19.50
2017,06,24,08,28,19.30
2017,06,24,08,29,19.20
2017,06,24,08,30,19.10
2017,06,24,08,31,19.00
2017,06,24,08,32,19.00
2017,06,24,08,33,19.00
2017,06,24,08,34,19.00
2017,06,24,08,35,19.00
2017,06,24,08,36,19.00
2017,06,24,08,37,19.00
2017,06,24,08,38,19.10
2017,06,24,08,39,19.20
2017,06,24,08,40,19.30
2017,06,24,08,41,19.40
2017,06,24,08,42,19.50
2017,06,24,08,43,19.60
2017,06,24,08,44,19.80
2017,06,24,08,45,19.90
2017,06,24,08,46,20.00
2017,06,24,08,47,20.10
2017,06,24,08,48,20.20
2017,06,24,08,49,20.20
2017,06,24,08,50,20.20
2017,06,24,08,51,20.30
2017,06,24,08,52,20.40
2017,06,24,08,53,20.40
2017,06,24,08,54,20.50
2017,06,24,08,55,20.50
2017,06,24,08,56,20.60
2017,06,24,08,57,20.60
2017,06,24,08,58,20.60
2017,06,24,08,59,20.60
2017,06,24,09,00,20.50
2017,06,24,09,01,20.50
2017,06,24,09,02,20.60
2017,06,24,09,03,20.60
2017,06,24,09,04,20.60
2017,06,24,09,05,20.70
2017,06,24,09,06,20.70
2017,06,24,09,07,20.70
2017,06,24,09,08,20.70
2017,06,24,09,09,20.70
2017,06,24,09,10,20.70
2017,06,24,09,11,20.70
2017,06,24,09,12,20.70
2017,06,24,09,13,20.70
2017,06,24,09,14,20.70
2017,06,24,09,15,20.70
2017,06,24,09,16,20.80
2017,06,24,09,17,20.80
2017,06,24,09,18,20.90
2017,06,24,09,19,20.90
2017,06,24,09,20,20.90
2017,06,24,09,21,20.90
2017,06,24,09,22,20.90
2017,06,24,09,23,20.90
2017,06,24,09,24,21.00
2017,06,24,09,25,21.00
2017,06,24,09,26,21.10
2017,06,24,09,27,21.20
2017,06,24,09,28,21.20
2017,06,24,09,29,21.30
2017,06,24,09,30,21.30
2017,06,24,09,31,21.30
2017,06,24,09,32,21.30
2017,06,24,09,33,21.30
2017,06,24,09,34,21.30
2017,06,24,09,35,21.30
2017,06,24,09,36,21.30
2017,06,24,09,37,21.30
2017,06,24,09,38,21.30
2017,06,24,09,39,21.30
2017,06,24,09,40,21.30
2017,06,24,09,41,21.30
2017,06,24,09,42,21.30
2017,06,24,09,43,21.30
2017,06,24,09,44,21.30
2017,06,24,09,45,21.30
2017,06,24,09,46,21.30
2017,06,24,09,47,21.30
2017,06,24,09,48,21.30
2017,06,24,09,49,21.30
2017,06,24,09,50,21.30
2017,06,24,09,51,21.40
2017,06,24,09,52,21.40
2017,06,24,09,53,21.50
2017,06,24,09,54,21.50
2017,06,24,09,55,21.60
2017,06,24,09,56,21.60
2017,06,24,09,57,21.60
2017,06,24,09,58,21.60
2017,06,24,09,59,21.70
2017,06,24,10,00,21.80
2017,06,24,10,01,21.80
2017,06,24,10,02,21.90
2017,06,24,10,03,22.00
2017,06,24,10,04,22.10
2017,06,24,10,05,22.20
2017,06,24,10,06,22.20
2017,06,24,10,07,22.20
2017,06,24,10,08,22.30
2017,06,24,10,09,22.30
2017,06,24,10,10,22.30
2017,06,24,10,11,22.40
2017,06,24,10,12,22.40
2017,06,24,10,13,22.40
2017,06,24,10,14,22.40
2017,06,24,10,15,22.50
2017,06,24,10,16,22.60
2017,06,24,10,17,22.60
2017,06,24,10,18,22.60
2017,06,24,10,19,22.50
2017,06,24,10,20,22.50
2017,06,24,10,21,22.40
2017,06,24,10,22,22.40
2017,06,24,10,23,22.40
2017,06,24,10,24,22.40
2017,06,24,10,25,22.40
2017,06,24,10,26,22.40
2017,06,24,10,27,22.40
2017,06,24,10,28,22.50
2017,06,24,10,29,22.50
2017,06,24,10,30,22.50
2017,06,24,10,31,22.50
2017,06,24,10,32,22.60
2017,06,24,10,33,22.60
2017,06,24,10,34,22.60
2017,06,24,10,35,22.60
2017,06,24,10,36,22.60
2017,06,24,10,37,22.70
2017,06,24,10,38,22.70
2017,06,24,10,39,22.80
2017,06,24,10,40,22.90
2017,06,24,10,41,23.00
2017,06,24,10,42,23.00
2017,06,24,10,43,23.10
2017,06,24,10,44,23.10
2017,06,24,10,45,23.10
2017,06,24,10,46,23.20
2017,06,24,10,47,23.30
2017,06,24,10,48,23.30
2017,06,24,10,49,23.30
2017,06,24,10,50,23.30
2017,06,24,10,51,23.30
2017,06,24,10,52,23.20
2017,06,24,10,53,23.10
2017,06,24,10,54,23.10
2017,06,24,10,55,23.00
2017,06,24,10,56,23.00
2017,06,24,10,57,22.90
2017,06,24,10,58,22.90
2017,06,24,10,59,22.80
2017,06,24,11,00,22.70
2017,06,24,11,01,22.50
2017,06,24,11,02,22.40
2017,06,24,11,03,22.40
2017,06,24,11,04,22.30
2017,06,24,11,05,22.20
2017,06,24,11,06,22.10
2017,06,24,11,07,22.10
2017,06,24,11,08,22.10
2017,06,24,11,09,22.10
2017,06,24,11,10,22.10
2017,06,24,11,11,22.20
2017,06,24,11,12,22.20
2017,06,24,11,13,22.30
2017,06,24,11,14,22.30
2017,06,24,11,15,22.30
2017,06,24,11,16,22.40
2017,06,24,11,17,22.40
2017,06,24,11,18,22.40
2017,06,24,11,19,22.40
2017,06,24,11,20,22.40
2017,06,24,11,21,22.50
2017,06,24,11,22,22.60
2017,06,24,11,23,22.60
2017,06,24,11,24,22.70
2017,06,24,11,25,22.70
2017,06,24,11,26,22.90
2017,06,24,11,27,22.90
2017,06,24,11,28,22.90
2017,06,24,11,29,23.00
2017,06,24,11,30,23.00
2017,06,24,11,31,23.10
2017,06,24,11,32,23.10
2017,06,24,11,33,23.20
2017,06,24,11,34,23.30
2017,06,24,11,35,23.40
2017,06,24,11,36,23.40
2017,06,24,11,37,23.50
2017,06,24,11,38,23.60
2017,06,24,11,39,23.70
2017,06,24,11,40,23.80
2017,06,24,11,41,23.80
2017,06,24,11,42,23.70
2017,06,24,11,43,23.70
2017,06,24,11,44,23.70
2017,06,24,11,45,23.70
2017,06,24,11,46,23.60
2017,06,24,11,47,23.70
2017,06,24,11,48,23.70
2017,06,24,11,49,23.80
2017,06,24,11,50,23.80
2017,06,24,11,51,23.90
2017,06,24,11,52,24.00
2017,06,24,11,53,23.90
2017,06,24,11,54,23.90
2017,06,24,11,55,23.80
2017,06,24,11,56,23.80
2017,06,24,11,57,23.80
2017,06,24,11,58,23.80
2017,06,24,11,59,23.80
2017,06,24,12,00,23.80
2017,06,24,12,01,23.80
2017,06,24,12,02,23.80
2017,06,24,12,03,23.80
2017,06,24,12,04,23.70
2017,06,24,12,05,23.80
2017,06,24,12,06,23.80
2017,06,24,12,07,23.90
2017,06,24,12,08,24.00
2017,06,24,12,09,24.10
2017,06,24,12,10,24.20
2017,06,24,12,11,24.30
2017,06,24,12,12,24.40
2017,06,24,12,13,24.40
2017,06,24,12,14,24.50
2017,06,24,12,15,24.60
2017,06,24,12,16,24.70
2017,06,24,12,17,24.70
2017,06,24,12,18,24.80
2017,06,24,12,19,24.90
2017,06,24,12,20,25.00
2017,06,24,12,21,25.10
2017,06,24,12,22,25.20
2017,06,24,12,23,25.20
2017,06,24,12,24,25.20
2017,06,24,12,25,25.10
2017,06,24,12,26,25.00
2017,06,24,12,27,25.00
2017,06,24,12,28,25.00
2017,06,24,12,29,25.00
2017,06,24,12,30,25.00
2017,06,24,12,31,25.00
2017,06,24,12,32,25.10
2017,06,24,12,33,25.00
2017,06,24,12,34,24.80
2017,06,24,12,35,24.70
2017,06,24,12,36,24.60
2017,06,24,12,37,24.50
2017,06,24,12,38,24.40
2017,06,24,12,39,24.40
2017,06,24,12,40,24.40
2017,06,24,12,41,24.50
2017,06,24,12,42,24.60
2017,06,24,12,43,24.60
2017,06,24,12,44,24.70
2017,06,24,12,45,24.80
2017,06,24,12,46,24.80
2017,06,24,12,47,24.80
2017,06,24,12,48,24.80
2017,06,24,12,49,24.80
2017,06,24,12,50,24.90
2017,06,24,12,51,24.90
2017,06,24,12,52,24.90
2017,06,24,12,53,24.90
2017,06,24,12,54,25.00
2017,06,24,12,55,25.10
2017,06,24,12,56,25.10
2017,06,24,12,57,25.20
2017,06,24,12,58,25.20
2017,06,24,12,59,25.30
2017,06,24,13,00,25.30
2017,06,24,13,01,25.40
2017,06,24,13,02,25.50
2017,06,24,13,03,25.50
2017,06,24,13,04,25.60
2017,06,24,13,05,25.60
2017,06,24,13,06,25.60
2017,06,24,13,07,25.60
2017,06,24,13,08,25.60
2017,06,24,13,09,25.60
2017,06,24,13,10,25.60
2017,06,24,13,11,25.60
2017,06,24,13,12,25.60
2017,06,24,13,13,25.60
2017,06,24,13,14,25.50
2017,06,24,13,15,25.40
2017,06,24,13,16,25.40
2017,06,24,13,17,25.40
2017,06,24,13,18,25.40
2017,06,24,13,19,25.40
2017,06,24,13,20,25.50
2017,06,24,13,21,25.50
2017,06,24,13,22,25.50
2017,06,24,13,23,25.60
2017,06,24,13,24,25.60
2017,06,24,13,25,25.70
2017,06,24,13,26,25.80
2017,06,24,13,27,25.80
2017,06,24,13,28,25.90
2017,06,24,13,29,25.90
2017,06,24,13,30,26.00
2017,06,24,13,31,26.00
2017,06,24,13,32,26.10
2017,06,24,13,33,26.20
2017,06,24,13,34,26.20
2017,06,24,13,35,26.30
2017,06,24,13,36,26.30
2017,06,24,13,37,26.30
2017,06,24,13,38,26.30
2017,06,24,13,39,26.30
2017,06,24,13,40,26.40
2017,06,24,13,41,26.40
2017,06,24,13,42,26.40
2017,06,24,13,43,26.40
2017,06,24,13,44,26.40
2017,06,24,13,45,26.40
2017,06,24,13,46,26.40
2017,06,24,13,47,26.50
2017,06,24,13,48,26.50
2017,06,24,13,49,26.60
2017,06,24,13,50,26.70
2017,06,24,13,51,26.70
2017,06,24,13,52,26.70
2017,06,24,13,53,26.70
2017,06,24,13,54,26.70
2017,06,24,13,55,26.70
2017,06,24,13,56,26.80
2017,06,24,13,57,26.80
2017,06,24,13,58,26.90
2017,06,24,13,59,27.00
2017,06,24,14,00,27.00
2017,06,24,14,01,26.90
2017,06,24,14,02,26.90
2017,06,24,14,03,26.80
2017,06,24,14,04,26.70
2017,06,24,14,05,26.70
2017,06,24,14,06,26.70
2017,06,24,14,07,26.70
2017,06,24,14,08,26.80
2017,06,24,14,09,26.80
2017,06,24,14,10,26.90
2017,06,24,14,11,27.00
2017,06,24,14,12,27.00
2017,06,24,14,13,26.90
2017,06,24,14,14,26.90
2017,06,24,14,15,27.00
2017,06,24,14,16,27.00
2017,06,24,14,17,27.00
2017,06,24,14,18,27.00
2017,06,24,14,19,27.00
2017,06,24,14,20,27.00
2017,06,24,14,21,26.90
2017,06,24,14,22,27.00
2017,06,24,14,23,27.00
2017,06,24,14,24,27.10
2017,06,24,14,25,27.20
2017,06,24,14,26,27.20
2017,06,24,14,27,27.20
2017,06,24,14,28,27.20
2017,06,24,14,29,27.20
2017,06,24,14,30,27.10
2017,06,24,14,31,27.10
2017,06,24,14,32,27.20
2017,06,24,14,33,27.20
2017,06,24,14,34,27.30
2017,06,24,14,35,27.40
2017,06,24,14,36,27.30
2017,06,24,14,37,27.40
2017,06,24,14,38,27.40
2017,06,24,14,39,27.50
2017,06,24,14,40,27.60
2017,06,24,14,41,27.60
2017,06,24,14,42,27.70
2017,06,24,14,43,27.70
2017,06,24,14,44,27.70
2017,06,24,14,45,27.70
2017,06,24,14,46,27.70
2017,06,24,14,47,27.60
2017,06,24,14,48,27.50
2017,06,24,14,49,27.50
2017,06,24,14,50,27.50
2017,06,24,14,51,27.60
2017,06,24,14,52,27.60
2017,06,24,14,53,27.60
2017,06,24,14,54,27.60
2017,06,24,14,55,27.60
2017,06,24,14,56,27.50
2017,06,24,14,57,27.50
2017,06,24,14,58,27.50
2017,06,24,14,59,27.50
2017,06,24,15,00,27.50
2017,06,24,15,01,27.50
2017,06,24,15,02,27.60
2017,06,24,15,03,27.60
2017,06,24,15,04,27.70
2017,06,24,15,05,27.70
2017,06,24,15,06,27.80
2017,06,24,15,07,27.90
2017,06,24,15,08,27.90
2017,06,24,15,09,27.90
2017,06,24,15,10,28.00
2017,06,24,15,11,28.10
2017,06,24,15,12,28.10
2017,06,24,15,13,28.20
2017,06,24,15,14,28.20
2017,06,24,15,15,28.20
2017,06,24,15,16,28.30
2017,06,24,15,17,28.30
2017,06,24,15,18,28.40
2017,06,24,15,19,28.50
2017,06,24,15,20,28.60
2017,06,24,15,21,28.60
2017,06,24,15,22,28.60
2017,06,24,15,23,28.60
2017,06,24,15,24,28.60
2017,06,24,15,25,28.60
2017,06,24,15,26,28.60
2017,06,24,15,27,28.60
2017,06,24,15,28,28.60
2017,06,24,15,29,28.60
2017,06,24,15,30,28.60
2017,06,24,15,31,28.60
2017,06,24,15,32,28.50
2017,06,24,15,33,28.40
2017,06,24,15,34,28.40
2017,06,24,15,35,28.40
2017,06,24,15,36,28.40
2017,06,24,15,37,28.30
2017,06,24,15,38,28.30
2017,06,24,15,39,28.40
2017,06,24,15,40,28.40
2017,06,24,15,41,28.50
2017,06,24,15,42,28.60
2017,06,24,15,43,28.70
2017,06,24,15,44,28.80
2017,06,24,15,45,28.80
2017,06,24,15,46,28.80
2017,06,24,15,47,28.70
2017,06,24,15,48,28.70
2017,06,24,15,49,28.70
2017,06,24,15,50,28.60
2017,06,24,15,51,28.60
2017,06,24,15,52,28.60
2017,06,24,15,53,28.50
2017,06,24,15,54,28.50
2017,06,24,15,55,28.50
2017,06,24,15,56,28.60
2017,06,24,15,57,28.60
2017,06,24,15,58,28.60
2017,06,24,15,59,28.70
2017,06,24,16,00,28.70
2017,06,24,16,01,28.80
2017,06,24,16,02,28.80
2017,06,24,16,03,28.80
2017,06,24,16,04,28.70
2017,06,24,16,05,28.70
2017,06,24,16,06,28.70
2017,06,24,16,07,28.70
2017,06,24,16,08,28.70
2017,06,24,16,09,28.80
2017,06,24,16,10,28.80
2017,06,24,16,11,28.90
2017,06,24,16,12,29.00
2017,06,24,16,13,29.10
2017,06,24,16,14,29.10
2017,06,24,16,15,29.10
2017,06,24,16,16,29.00
2017,06,24,16,17,28.90
2017,06,24,16,18,28.80
2017,06,24,16,19,28.80
2017,06,24,16,20,28.70
2017,06,24,16,21,28.70
2017,06,24,16,22,28.70
2017,06,24,16,23,28.70
2017,06,24,16,24,28.70
2017,06,24,16,25,28.80
2017,06,24,16,26,28.90
2017,06,24,16,27,29.00
2017,06,24,16,28,29.10
2017,06,24,16,29,29.10
2017,06,24,16,30,29.10
2017,06,24,16,31,29.10
2017,06,24,16,32,29.10
2017,06,24,16,33,29.10
2017,06,24,16,34,29.20
2017,06,24,16,35,29.20
2017,06,24,16,36,29.30
2017,06,24,16,37,29.40
2017,06,24,16,38,29.50
2017,06,24,16,39,29.50
2017,06,24,16,40,29.60
2017,06,24,16,41,29.60
2017,06,24,16,42,29.50
2017,06,24,16,43,29.50
2017,06,24,16,44,29.40
2017,06,24,16,45,29.30
2017,06,24,16,46,29.20
2017,06,24,16,47,29.20
2017,06,24,16,48,29.10
2017,06,24,16,49,29.10
2017,06,24,16,50,29.00
2017,06,24,16,51,29.00
2017,06,24,16,52,29.00
2017,06,24,16,53,29.00
2017,06,24,16,54,29.00
2017,06,24,16,55,29.00
2017,06,24,16,56,28.90
2017,06,24,16,57,28.90
2017,06,24,16,58,28.90
2017,06,24,16,59,28.90
2017,06,24,17,00,28.90
2017,06,24,17,01,28.90
2017,06,24,17,02,28.90
2017,06,24,17,03,29.00
2017,06,24,17,04,29.00
2017,06,24,17,05,29.10
2017,06,24,17,06,29.10
2017,06,24,17,07,29.10
2017,06,24,17,08,29.10
2017,06,24,17,09,29.10
2017,06,24,17,10,29.00
2017,06,24,17,11,29.00
2017,06,24,17,12,28.90
2017,06,24,17,13,28.80
2017,06,24,17,14,28.80
2017,06,24,17,15,28.80
2017,06,24,17,16,28.80
2017,06,24,17,17,28.80
2017,06,24,17,18,28.80
2017,06,24,17,19,28.80